Location: Rioux
(40.7500°S, 175.7500°E)
Time: 11:07:53
(UTC+00:00)

Lacrosse 4 Rocket - Pass Details

Date: 12 June 2024
Orbit: 525 x 593 km, 68.0° (Epoch: 20 July)

Event Time Altitude Azimuth Distance (km) Brightness Sun altitude
Exits shadow 19:04:04 - 219° (SW) 2,230 3.9 -6.6°
Reaches altitude 10° 19:05:00 10° 223° (SW) 1,871 3.4 -6.5°
Maximum altitude 19:08:52 38° 291° (WNW) 863 2.0 -5.8°
Drops below altitude 10° 19:12:38 10° 359° (N) 1,808 4.3 -5.2°
Sets 19:14:53 0° 7° (N) 2,680 5.4 -4.8°
